TimeCST,TemperatureF,Dew PointF,Humidity,Sea Level PressureIn,VisibilityMPH,Wind Direction,Wind SpeedMPH,Gust SpeedMPH,PrecipitationIn,Events,Conditions,WindDirDegrees,DateUTC
12:15 AM,44.6,28.4,53,29.75,10.0,SE,10.4,-,N/A,,Clear,140,2013-03-04 06:15:00
12:35 AM,44.6,28.4,53,29.74,10.0,SE,10.4,-,N/A,,Clear,140,2013-03-04 06:35:00
12:55 AM,44.6,28.4,53,29.74,10.0,SE,10.4,-,N/A,,Clear,140,2013-03-04 06:55:00
1:35 AM,44.6,28.4,53,29.72,10.0,SE,10.4,-,N/A,,Clear,140,2013-03-04 07:35:00
1:55 AM,44.6,28.4,53,29.71,10.0,SE,10.4,-,N/A,,Clear,140,2013-03-04 07:55:00
2:15 AM,44.6,28.4,53,29.70,10.0,SE,10.4,-,N/A,,Clear,140,2013-03-04 08:15:00
2:55 AM,46.4,28.4,50,29.67,10.0,SE,10.4,-,N/A,,Clear,140,2013-03-04 08:55:00
3:15 AM,46.4,28.4,50,29.67,10.0,SE,10.4,-,N/A,,Clear,130,2013-03-04 09:15:00
3:35 AM,46.4,30.2,53,29.66,10.0,SE,10.4,-,N/A,,Clear,140,2013-03-04 09:35:00
3:55 AM,46.4,30.2,53,29.66,10.0,SE,9.2,-,N/A,,Clear,140,2013-03-04 09:55:00
4:15 AM,46.4,30.2,53,29.67,10.0,SE,9.2,-,N/A,,Clear,140,2013-03-04 10:15:00
4:35 AM,44.6,30.2,57,29.67,10.0,SE,8.1,-,N/A,,Clear,140,2013-03-04 10:35:00
4:55 AM,44.6,30.2,57,29.67,10.0,SE,5.8,-,N/A,,Clear,130,2013-03-04 10:55:00
5:15 AM,46.4,32.0,57,29.66,10.0,SSE,9.2,-,N/A,,Clear,150,2013-03-04 11:15:00
5:35 AM,46.4,32.0,57,29.66,10.0,SE,8.1,-,N/A,,Clear,130,2013-03-04 11:35:00
5:55 AM,46.4,32.0,57,29.65,10.0,SSE,9.2,-,N/A,,Clear,160,2013-03-04 11:55:00
6:15 AM,50.0,33.8,54,29.65,10.0,SSE,12.7,17.3,N/A,,Clear,160,2013-03-04 12:15:00
6:35 AM,50.0,33.8,54,29.65,10.0,SSE,10.4,-,N/A,,Clear,160,2013-03-04 12:35:00
6:55 AM,48.2,33.8,58,29.65,10.0,SSE,12.7,-,N/A,,Clear,160,2013-03-04 12:55:00
7:15 AM,48.2,33.8,58,29.65,10.0,SSE,11.5,-,N/A,,Clear,160,2013-03-04 13:15:00
7:35 AM,48.2,33.8,58,29.65,10.0,SSE,11.5,-,N/A,,Clear,160,2013-03-04 13:35:00
7:55 AM,50.0,33.8,54,29.66,10.0,SSE,10.4,-,N/A,,Clear,150,2013-03-04 13:55:00
8:15 AM,50.0,33.8,54,29.66,10.0,SE,6.9,-,N/A,,Clear,140,2013-03-04 14:15:00
8:35 AM,51.8,35.6,54,29.67,10.0,SE,6.9,-,N/A,,Clear,140,2013-03-04 14:35:00
8:55 AM,53.6,35.6,51,29.67,10.0,South,10.4,-,N/A,,Clear,170,2013-03-04 14:55:00
9:15 AM,55.4,37.4,51,29.67,10.0,South,11.5,-,N/A,,Clear,170,2013-03-04 15:15:00
9:35 AM,55.4,37.4,51,29.67,10.0,South,12.7,-,N/A,,Clear,170,2013-03-04 15:35:00
9:55 AM,57.2,37.4,48,29.66,10.0,South,13.8,19.6,N/A,,Clear,180,2013-03-04 15:55:00
10:15 AM,57.2,37.4,48,29.66,10.0,South,15.0,24.2,N/A,,Clear,180,2013-03-04 16:15:00
10:35 AM,59.0,39.2,48,29.65,10.0,South,15.0,19.6,N/A,,Clear,190,2013-03-04 16:35:00
10:55 AM,60.8,39.2,45,29.65,10.0,South,16.1,19.6,N/A,,Clear,190,2013-03-04 16:55:00
11:15 AM,60.8,39.2,45,29.65,10.0,South,10.4,21.9,N/A,,Clear,180,2013-03-04 17:15:00
11:35 AM,60.8,39.2,45,29.64,10.0,South,12.7,19.6,N/A,,Clear,180,2013-03-04 17:35:00
11:55 AM,62.6,39.2,42,29.65,10.0,South,10.4,-,N/A,,Clear,190,2013-03-04 17:55:00
12:15 PM,62.6,39.2,42,29.64,10.0,SSW,11.5,18.4,N/A,,Clear,200,2013-03-04 18:15:00
12:55 PM,62.6,41.0,45,29.61,10.0,South,10.4,20.7,N/A,,Clear,190,2013-03-04 18:55:00
1:15 PM,62.6,42.8,48,29.61,10.0,South,10.4,19.6,N/A,,Clear,190,2013-03-04 19:15:00
1:35 PM,64.4,42.8,45,29.60,10.0,SSW,12.7,-,N/A,,Clear,200,2013-03-04 19:35:00
1:55 PM,64.4,42.8,45,29.61,10.0,South,11.5,18.4,N/A,,Clear,180,2013-03-04 19:55:00
2:15 PM,64.4,42.8,45,29.61,10.0,SSW,8.1,16.1,N/A,,Partly Cloudy,210,2013-03-04 20:15:00
2:35 PM,64.4,42.8,45,29.61,10.0,SSW,6.9,16.1,N/A,,Mostly Cloudy,210,2013-03-04 20:35:00
2:55 PM,64.4,42.8,45,29.61,10.0,SSW,8.1,16.1,N/A,,Mostly Cloudy,210,2013-03-04 20:55:00
3:15 PM,62.6,42.8,48,29.62,10.0,South,11.5,-,N/A,,Mostly Cloudy,190,2013-03-04 21:15:00
3:35 PM,62.6,42.8,48,29.63,10.0,SSW,4.6,-,N/A,,Overcast,200,2013-03-04 21:35:00
3:55 PM,62.6,42.8,48,29.63,10.0,South,8.1,-,N/A,,Overcast,190,2013-03-04 21:55:00
4:15 PM,62.6,42.8,48,29.64,10.0,South,10.4,-,N/A,,Overcast,180,2013-03-04 22:15:00
4:35 PM,62.6,44.6,52,29.64,10.0,South,8.1,-,N/A,,Overcast,180,2013-03-04 22:35:00
4:55 PM,62.6,42.8,48,29.64,10.0,South,6.9,-,N/A,,Overcast,180,2013-03-04 22:55:00
5:15 PM,62.6,42.8,48,29.65,10.0,South,8.1,-,N/A,,Overcast,170,2013-03-04 23:15:00
5:35 PM,62.6,44.6,52,29.65,10.0,SSE,6.9,-,N/A,,Overcast,160,2013-03-04 23:35:00
5:55 PM,59.0,42.8,55,29.66,10.0,SSE,4.6,-,N/A,,Scattered Clouds,150,2013-03-04 23:55:00
6:15 PM,57.2,42.8,59,29.67,10.0,SSE,3.5,-,N/A,,Clear,160,2013-03-05 00:15:00
6:35 PM,57.2,42.8,59,29.67,10.0,SE,3.5,-,N/A,,Clear,140,2013-03-05 00:35:00
6:55 PM,57.2,42.8,59,29.68,10.0,SE,3.5,-,N/A,,Clear,140,2013-03-05 00:55:00
7:15 PM,55.4,42.8,63,29.68,10.0,ESE,3.5,-,N/A,,Clear,120,2013-03-05 01:15:00
7:35 PM,55.4,42.8,63,29.69,10.0,SE,3.5,-,N/A,,Clear,140,2013-03-05 01:35:00
7:55 PM,53.6,42.8,67,29.69,10.0,ESE,3.5,-,N/A,,Clear,120,2013-03-05 01:55:00
8:15 PM,53.6,42.8,67,29.69,10.0,SE,6.9,-,N/A,,Clear,130,2013-03-05 02:15:00
8:35 PM,51.8,42.8,71,29.70,10.0,SE,6.9,-,N/A,,Clear,140,2013-03-05 02:35:00
8:55 PM,50.0,42.8,76,29.70,10.0,SE,5.8,-,N/A,,Clear,140,2013-03-05 02:55:00
9:15 PM,50.0,42.8,76,29.71,10.0,Calm,Calm,-,N/A,,Clear,0,2013-03-05 03:15:00
9:35 PM,46.4,41.0,81,29.72,10.0,Calm,Calm,-,N/A,,Clear,0,2013-03-05 03:35:00
9:55 PM,46.4,41.0,81,29.74,10.0,NW,8.1,-,N/A,,Clear,310,2013-03-05 03:55:00
10:15 PM,51.8,42.8,71,29.76,10.0,NNW,12.7,19.6,N/A,,Clear,340,2013-03-05 04:15:00
10:35 PM,50.0,39.2,66,29.77,10.0,North,16.1,24.2,N/A,,Clear,350,2013-03-05 04:35:00
10:55 PM,48.2,35.6,62,29.79,10.0,North,12.7,-,N/A,,Clear,350,2013-03-05 04:55:00
11:15 PM,46.4,33.8,62,29.80,10.0,North,20.7,27.6,N/A,,Clear,360,2013-03-05 05:15:00
11:35 PM,44.6,32.0,61,29.82,10.0,North,13.8,27.6,N/A,,Clear,360,2013-03-05 05:35:00
11:55 PM,44.6,32.0,61,29.84,10.0,NNW,11.5,21.9,N/A,,Clear,340,2013-03-05 05:55:00